Regional Weather Roundup
Issued by NWS Green Bay, WI

Home | Current Version | Previous Version | Text Only | Print | Product List | Glossary On
Versions: 1 2 3 4 5 6 7 8 9 10 11 12 13 14 15 16 17 18 19 20 21 22 23 24 25 26 27 28 29 30 31 32 33 34 35 36 37 38 39 40 41 42 43 44 45 46 47 48 49 50
000
ASUS43 KGRB 232211
RWRGRB

NORTH-CENTRAL AND NORTHEAST WISCONSIN REGIONAL WEATHER ROUNDUP
NATIONAL WEATHER SERVICE GREEN BAY WI
500 PM CDT MON OCT 23 2017

WIZ005-009-010>012-018-019-232300-
NORTH CENTRAL WISCONSIN

CITY           SKY/WX    TMP DP  RH WIND       PRES   REMARKS
IRONWOOD       CLOUDY    57  42  57 CALM      29.68S
MANITOWISH WTR CLOUDY    53  42  66 S3        29.67S
ARBOR VITAE    MOCLDY    55  44  67 CALM      29.67F
EAGLE RIVER    CLOUDY    52  39  63 SW3       29.67S
LAND O LAKES   CLOUDY    54  39  57 CALM      29.69F
RHINELANDER    CLOUDY    52  43  71 CALM      29.69S
PHILLIPS       DRIZZLE   54  45  73 CALM      29.67F
ANTIGO         CLOUDY    49  42  77 S3        29.69S
TOMAHAWK       LGT RAIN  51  41  68 CALM      29.69S
MERRILL        CLOUDY    54  42  65 W6        29.69R
$$

WIZ013-073-232300-
NORTHEAST WISCONSIN

CITY           SKY/WX    TMP DP  RH WIND       PRES   REMARKS
IRON MOUNTAIN  CLOUDY    51  39  63 SE3       29.67F
MARINETTE      CLOUDY    51  47  86 NE3       29.68F
OCONTO         CLOUDY    50  46  87 CALM      29.68S
$$

WIZ017-030-035>037-045-232300-
CENTRAL WISCONSIN

CITY           SKY/WX    TMP DP  RH WIND       PRES   REMARKS
MEDFORD        CLOUDY    50  42  74 SW3       29.69R
WAUSAU         CLOUDY    53  41  63 W5        29.67F
MOSINEE        CLOUDY    54  43  66 W6        29.70F
MARSHFIELD     CLOUDY    53  41  63 W8        29.69S
WISC RAPIDS    CLOUDY    56  43  61 W6        29.70S
STEVENS POINT  CLOUDY    54  41  63 W5        29.69S
WAUPACA        CLOUDY    55  46  70 CALM      29.69S
SHAWANO        CLOUDY    54  46  74 CALM      29.69R
CLINTONVILLE   NOT AVBL
WAUTOMA        NOT AVBL
$$

WIZ038-039-048-051-232300-
FOX VALLEY

CITY           SKY/WX    TMP DP  RH WIND       PRES   REMARKS
NWS GREEN BAY  CLOUDY    53  48  83 W3        29.69R
APPLETON       MOCLDY    54  39  58 W5        29.68S
OSHKOSH        CLOUDY    53  42  66 CALM      29.68R
FOND DU LAC    CLOUDY    53  42  66 CALM      29.69R
$$

WIZ022-050-052-232300-
EAST CENTRAL WISCONSIN

CITY           SKY/WX    TMP DP  RH WIND       PRES   REMARKS
EPHRAIM        CLOUDY    50  46  86 NE3       29.68S
WASHINGTON ISL FAIR      50  43  78 NE3       29.68F
STURGEON BAY   CLOUDY    51  46  83 NE6       29.68F
MANITOWOC      CLOUDY    52  45  77 E3        29.68S
SHEBOYGAN      CLOUDY    52  47  83 NW5       29.68S
$$

LMZ563-521-522-541>543-232300-
LAKESHORE

STATION/POSITION TIME  TEMP    WIND        PRES    VSBY  WAVE
                       AIR SEA DIR/SP/G                  HT/PER
                 (UTC) (F)     (DEG/KT/KT) (MB)    (MI)  (FT/S)
SHEBOYGAN LKSHOR 2200   49      30/  4/  5 1004.8F
KEWAUNEE LKSHORE 2142   49      30/  2/  4 1004.2F
NORTHPORT PIER   2140   53      20/  6/  9 1005.4F
N MID LAKE BUOY  2150   54 57   40/  8/ 10 1005.7F         0
S GREEN BAY BUOY 2200   53 58   30/  6/  8 1004.9
SISTER BAY LKSHO 2204   51      40/  1/  6   N/A
MENOMINEE LKSHOR 2142   52      20/  6/  7 1004.9F
$$




USA.gov is the U.S. government's official web portal to all federal, state and local government web resources and services.